Location: Indian Hills
(32.9760°N, 85.9450°W)
Time: 05:42:03
(UTC+00:00)

Meteor 1-25 Rocket - Pass Details

Date: 09 December 2019
Orbit: 838 x 890 km, 81.2° (Epoch: 19 January)

Event Time Altitude Azimuth Distance (km) Brightness Sun altitude
Rises 10:51:37 0° 187° (S) 3,377 7.4 -21.1°
Reaches altitude 10° 10:54:00 10° 187° (S) 2,450 6.7 -20.6°
Maximum altitude 10:59:34 89° 276° (W) 853 4.1 -19.5°
Drops below altitude 10° 11:05:14 10° 8° (N) 2,493 6.6 -18.3°
Sets 11:07:41 0° 8° (N) 3,441 7.3 -17.8°
